Location: Mentone
(34.5413°N, 85.5351°W)
Time: 10:33:22
(UTC-05:00)

Amateur Radio Satellites - All Passes

Search period start: 26 June 2016 10:03
Search period end: 27 June 2016 10:03
Location: Mentone, 34.5413°N, 85.5351°W

Satellite Date Start Highest point End Downlink Frequencies (MHz)
Time Altitude Azimuth
ZACube-1 26 Jun 10:07:00 10:11:34 80° 282° (WNW) 10:16:08 437.345
HUMSAT D 26 Jun 10:08:33 10:11:49 21° 95° (E) 10:15:04 437.325/437.525
Cosmos 2491 26 Jun 10:18:07 10:19:53 11° 62° (ENE) 10:21:40 435.465 / 435.565
PHONESAT 2.4 26 Jun 10:22:08 10:24:46 25° 1° (N) 10:27:25 2401.200-2431.200
UWE-3 26 Jun 10:22:17 10:26:26 35° 287° (WNW) 10:30:39 435.000/436.395/437.385
Oscar 11 26 Jun 10:22:29 10:26:41 48° 286° (WNW) 10:30:51 145.826/435.025
TIGRISAT 26 Jun 10:25:02 10:29:17 88° 267° (W) 10:33:38 435.000
FUNcube-1 26 Jun 10:26:13 10:30:37 51° 286° (WNW) 10:35:02 145.935
UNISAT 6 26 Jun 10:29:16 10:33:31 73° 258° (WSW) 10:37:52 437.425
AAUSAT CUBESAT 2 26 Jun 10:35:47 10:37:39 13° 293° (WNW) 10:39:30 437.432
AUBIESAT-1 26 Jun 10:37:14 10:40:32 26° 292° (WNW) 10:44:02 437.475
PCSat 26 Jun 10:51:11 10:54:20 15° 49° (NE) 10:57:27 145.827
HO-68 26 Jun 10:52:10 10:55:41 14° 303° (WNW) 10:59:12 435.675
ESTCUBE 1 26 Jun 10:54:43 10:55:45 11° 92° (E) 10:56:46 437.505/2401.250
ISS 26 Jun 10:56:28 10:57:34 11° 334° (NNW) 10:58:41 145.825
DELFI C3 26 Jun 11:08:00 11:11:27 28° 288° (WNW) 11:14:51 145.870
ANTELSAT 26 Jun 11:10:08 11:13:36 24° 264° (W) 11:17:08 437.575/2403.000
BUGSAT 1 26 Jun 11:10:47 11:13:27 17° 69° (ENE) 11:16:07 437.445
NANOSAT C BR1 26 Jun 11:15:52 11:19:56 53° 75° (ENE) 11:24:00 145.865
QB50P1 26 Jun 11:17:17 11:21:23 59° 75° (ENE) 11:25:31 145.935-145.965
POPSAT HIP 1 26 Jun 11:20:13 11:24:20 63° 75° (ENE) 11:28:29 437.405
QB50P2 26 Jun 11:31:47 11:35:58 85° 257° (WSW) 11:40:12 145.880/145.840
POLYITAN 1 26 Jun 11:34:25 11:38:35 83° 257° (WSW) 11:42:49 437.675
DX 1 26 Jun 11:37:35 11:40:12 16° 94° (E) 11:42:48 434.975-435.025
DUCHIFAT 1 26 Jun 11:37:38 11:41:47 86° 255° (WSW) 11:45:58 145.980
HUMSAT D 26 Jun 11:43:44 11:47:22 27° 289° (WNW) 11:51:01 437.325/437.525
RS-15 26 Jun 11:51:56 12:03:03 68° 113° (ESE) 12:14:48 29.354- 29.394
BEESAT 3 26 Jun 11:52:49 11:56:22 31° 56° (NE) 11:59:54 437.485
YUBILEINY 26 Jun 11:53:22 12:00:02 26° 83° (E) 12:06:45 435.215
PHONESAT 2.4 26 Jun 11:58:48 12:01:47 46° 17° (NNE) 12:04:47 2401.200-2431.200
Oscar 19 26 Jun 12:01:06 12:03:00 12° 63° (ENE) 12:04:53 437.125/150
CUBEBUG 1 26 Jun 12:01:30 12:05:38 44° 99° (E) 12:09:46 437.445
VELOX 1 26 Jun 12:02:43 12:06:53 41° 99° (E) 12:11:01 145.980
JAS-2 26 Jun 12:06:09 12:13:38 53° 72° (ENE) 12:20:35 435.910
Cosmos 2491 26 Jun 12:09:37 12:18:20 71° 82° (E) 12:27:00 435.465 / 435.565
O/OREOS (USA 219) 26 Jun 12:12:17 12:14:45 14° 59° (ENE) 12:17:12 437.305
BEESAT 2 26 Jun 12:25:23 12:29:09 39° 57° (ENE) 12:32:53 435.950
50 SAT 26 Jun 12:27:59 12:31:41 73° 283° (WNW) 12:35:19 437.505
ESTCUBE 1 26 Jun 12:28:26 12:32:50 56° 286° (WNW) 12:37:13 437.505/2401.250
PCSat 26 Jun 12:32:50 12:38:15 72° 247° (WSW) 12:43:37 145.827
AISAT 26 Jun 12:43:07 12:47:27 59° 285° (WNW) 12:51:45 437.250
BUGSAT 1 26 Jun 12:45:06 12:48:35 28° 262° (W) 12:52:05 437.445
Cosmos 2504 26 Jun 12:45:23 12:48:59 14° 77° (ENE) 12:52:41 435.465 / 435.565
UKube-1 26 Jun 12:57:08 13:01:26 71° 284° (WNW) 13:05:42 .
TISAT 1 26 Jun 12:58:44 13:01:32 17° 95° (E) 13:04:21 437.305
SPROUT 26 Jun 13:03:33 13:07:51 86° 282° (WNW) 13:12:08 437.525
DX 1 26 Jun 13:12:30 13:16:28 36° 288° (WNW) 13:20:26 434.975-435.025
BEESAT 3 26 Jun 13:31:12 13:33:47 17° 250° (WSW) 13:36:22 437.485
Gurwin Techsat 1B 26 Jun 13:33:37 13:38:36 43° 72° (ENE) 13:43:37 435.225
PHONESAT 2.4 26 Jun 13:35:34 13:38:20 30° 212° (SSW) 13:41:06 2401.200-2431.200
Oscar 19 26 Jun 13:36:31 13:41:39 72° 258° (WSW) 13:46:49 437.125/150
CUBEBUG 1 26 Jun 13:39:25 13:41:30 13° 293° (WNW) 13:43:35 437.445
VELOX 1 26 Jun 13:40:30 13:42:57 15° 293° (WNW) 13:45:25 145.980
YUBILEINY 26 Jun 13:47:38 13:56:08 58° 280° (W) 14:04:45 435.215
O/OREOS (USA 219) 26 Jun 13:50:05 13:54:23 46° 254° (WSW) 13:58:40 437.305
SWISSCUBE 26 Jun 13:50:28 13:52:51 14° 93° (E) 13:55:12 437.505
JAS-2 26 Jun 13:52:14 13:58:41 28° 264° (W) 14:04:51 435.910
AO-7 26 Jun 13:53:18 13:58:44 20° 56° (NE) 14:04:10 29.400- 29.500
ITAMSAT 1 26 Jun 13:54:44 13:58:49 24° 67° (ENE) 14:02:56 435.822/435.867
BEESAT 2 26 Jun 14:04:34 14:06:37 14° 251° (WSW) 14:08:39 435.950
RS-15 26 Jun 14:06:09 14:16:21 35° 316° (NW) 14:27:05 29.354- 29.394
Cosmos 2491 26 Jun 14:08:24 14:14:12 20° 279° (W) 14:20:01 435.465 / 435.565
ITUPSAT 1 26 Jun 14:14:14 14:18:00 22° 96° (E) 14:21:43 437.325
BEESAT 26 Jun 14:14:49 14:18:37 23° 96° (E) 14:22:24 436.000
AIST 2 26 Jun 14:24:16 14:28:11 40° 57° (ENE) 14:32:05 435.215
Cosmos 2504 26 Jun 14:32:59 14:40:54 89° 95° (E) 14:49:29 435.465 / 435.565
TISAT 1 26 Jun 14:33:30 14:37:12 31° 288° (WNW) 14:40:54 437.305
Gurwin Techsat 1B 26 Jun 15:14:57 15:18:42 19° 266° (W) 15:22:27 435.225
SWISSCUBE 26 Jun 15:26:13 15:30:53 51° 286° (WNW) 15:35:29 437.505
ITAMSAT 1 26 Jun 15:33:20 15:38:03 35° 262° (W) 15:42:49 435.822/435.867
AO-7 26 Jun 15:42:07 15:50:27 85° 253° (WSW) 15:58:51 29.400- 29.500
SO-50 26 Jun 15:42:52 15:47:26 41° 113° (ESE) 15:52:01 436.795
KKS-1 26 Jun 15:42:53 15:46:21 22° 96° (E) 15:49:48 437.445
ISS 26 Jun 15:48:17 15:50:58 23° 34° (NE) 15:53:39 145.825
ITUPSAT 1 26 Jun 15:51:34 15:55:48 31° 290° (WNW) 16:00:00 437.325
BEESAT 26 Jun 15:52:12 15:56:22 30° 290° (WNW) 16:00:30 436.000
HORYU 2 26 Jun 16:02:58 16:06:30 24° 69° (ENE) 16:10:03 437.375
AIST 2 26 Jun 16:03:59 16:06:18 15° 251° (WSW) 16:08:36 435.215
AIST 1 26 Jun 16:11:38 16:12:28 10° 85° (E) 16:13:19
STARS 26 Jun 16:21:14 16:25:05 29° 98° (E) 16:28:54 437.465
JUGNU 26 Jun 16:27:12 16:30:54 17° 172° (S) 16:34:36 437.505
RS-15 26 Jun 16:28:50 16:34:16 14° 349° (N) 16:39:48 29.354- 29.394
Cosmos 2504 26 Jun 16:31:02 16:35:30 15° 295° (WNW) 16:40:10 435.465 / 435.565
MOZHAYETS 4 26 Jun 16:51:47 16:56:23 64° 285° (WNW) 17:00:56
NOAA 15 26 Jun 16:54:11 16:57:49 19° 66° (ENE) 17:01:26 137.62
NOAA 18 26 Jun 16:58:38 17:02:06 17° 64° (ENE) 17:05:35 137.9125
BRITE-PL 26 Jun 17:03:31 17:07:13 20° 70° (ENE) 17:10:45 437.365/2234.400
KKS-1 26 Jun 17:19:06 17:22:51 27° 290° (WNW) 17:26:36 437.445
Cubesat XI-IV 26 Jun 17:22:08 17:26:24 25° 68° (ENE) 17:30:41 437.490
SO-50 26 Jun 17:24:14 17:28:03 22° 309° (NW) 17:31:52 436.795
ISS 26 Jun 17:24:32 17:27:24 28° 229° (SW) 17:30:15 145.825
Cosmos 2499 26 Jun 17:28:56 17:32:14 13° 77° (ENE) 17:35:34 435.465 / 435.565
SRMSAT 26 Jun 17:38:37 17:40:59 12° 166° (SSE) 17:43:22 437.500
HORYU 2 26 Jun 17:39:16 17:42:55 25° 263° (W) 17:46:35 437.375
AO-7 26 Jun 17:40:29 17:44:09 13° 268° (W) 17:47:50 29.400- 29.500
AIST 1 26 Jun 17:45:21 17:49:33 48° 279° (W) 17:53:45
GOMX 1 26 Jun 17:48:54 17:52:42 24° 71° (ENE) 17:56:19 467.674
GONETS M04 26 Jun 17:49:30 17:57:02 34° 86° (E) 18:04:32
CUTE-I 26 Jun 17:56:09 18:01:20 54° 72° (ENE) 18:06:33 437.470
STARS 26 Jun 17:57:57 18:01:14 21° 291° (WNW) 18:04:30 437.465
CUBESAT XI-V 26 Jun 18:13:03 18:17:41 77° 284° (WNW) 18:22:15 437.345
JUGNU 26 Jun 18:15:08 18:19:14 19° 182° (S) 18:23:19 437.505
LilacSat-2 26 Jun 18:26:28 18:30:13 70° 260° (W) 18:33:59 437.200
CUSAT 1 26 Jun 18:28:57 18:32:01 25° 73° (ENE) 18:34:34 437.405
DANDE 26 Jun 18:31:35 18:33:47 13° 63° (ENE) 18:35:45 436.750
NOAA 15 26 Jun 18:32:06 18:37:11 46° 260° (W) 18:42:16 137.62
NOAA 18 26 Jun 18:36:57 18:42:15 54° 259° (WSW) 18:47:38 137.9125
BRITE-PL 26 Jun 18:40:34 18:45:28 39° 261° (W) 18:50:02 437.365/2234.400
STRAND 1 26 Jun 18:41:08 18:42:59 12° 92° (E) 18:44:50 437.568
RS-15 26 Jun 18:46:05 18:54:14 19° 27° (NNE) 19:02:23 29.354- 29.394
CUTE 1.7 + AOD 2 26 Jun 18:53:56 18:55:35 12° 66° (ENE) 18:57:14 437.475
DOVE 4 26 Jun 18:59:52 19:04:17 66° 76° (ENE) 19:08:29 437.250
Cubesat XI-IV 26 Jun 19:01:25 19:06:15 35° 262° (W) 19:11:08 437.490
SEEDS 26 Jun 19:03:00 19:03:44 10° 66° (ENE) 19:04:28 437.485
Cosmos 2499 26 Jun 19:15:41 19:23:47 83° 95° (E) 19:32:31 435.465 / 435.565
SRMSAT 26 Jun 19:25:28 19:29:26 18° 176° (S) 19:33:24 437.500
HO-68 26 Jun 19:26:17 19:33:06 50° 69° (ENE) 19:39:57 435.675
GOMX 1 26 Jun 19:26:39 19:30:40 26° 263° (W) 19:34:29 467.674
CUTE-I 26 Jun 19:38:31 19:41:39 16° 267° (W) 19:44:48 437.470
GONETS M04 26 Jun 19:45:19 19:53:31 44° 283° (WNW) 20:01:44
AAUSAT CUBESAT 2 26 Jun 19:46:07 19:49:04 19° 69° (ENE) 19:52:01 437.432
AUBIESAT-1 26 Jun 19:48:34 19:49:28 11° 63° (ENE) 19:50:22 437.475
JUGNU 26 Jun 20:04:35 20:07:32 14° 192° (SSW) 20:10:28 437.505
CANX-2 26 Jun 20:06:11 20:10:27 77° 260° (W) 20:14:46 2200.000
CINEMA 3 26 Jun 20:11:47 20:15:55 66° 259° (W) 20:20:03 145.822/145.860
DANDE 26 Jun 20:12:43 20:17:10 37° 270° (W) 20:20:33 436.750
COMPASS 1 26 Jun 20:16:39 20:20:46 57° 76° (ENE) 20:24:55 437.405
STRAND 1 26 Jun 20:17:26 20:22:33 65° 286° (WNW) 20:27:37 437.568
M-CUBED/EXP-1 PRIME 26 Jun 20:23:34 20:26:44 43° 70° (ENE) 20:29:50 437.505
CUBEBUG 2 26 Jun 20:23:41 20:27:35 42° 74° (ENE) 20:31:34 437.445
CUTE 1.7 + AOD 2 26 Jun 20:26:48 20:30:56 49° 261° (W) 20:35:06 437.475
SEEDS 26 Jun 20:34:44 20:38:53 57° 260° (W) 20:43:06 437.485
PRISM 26 Jun 20:38:38 20:42:10 28° 97° (E) 20:45:40 437.425
RS-15 26 Jun 20:57:57 21:10:10 60° 55° (NE) 21:22:08 29.354- 29.394
ZACube-1 26 Jun 20:59:21 21:03:20 48° 74° (ENE) 21:07:26 437.345
Cosmos 2499 26 Jun 21:12:50 21:18:00 18° 294° (WNW) 21:23:23 435.465 / 435.565
AO-85 26 Jun 21:13:03 21:18:03 39° 113° (ESE) 21:23:00 145.980
Oscar 11 26 Jun 21:13:08 21:17:27 81° 78° (ENE) 21:21:49 145.826/435.025
SRMSAT 26 Jun 21:14:06 21:17:55 18° 186° (S) 21:21:42 437.500
HO-68 26 Jun 21:15:10 21:20:58 27° 264° (W) 21:26:50 435.675
UWE-3 26 Jun 21:15:25 21:19:31 64° 259° (WSW) 21:23:43 435.000/436.395/437.385
FUNcube-1 26 Jun 21:17:57 21:22:06 78° 78° (ENE) 21:26:21 145.935
AAUSAT CUBESAT 2 26 Jun 21:20:41 21:24:18 29° 263° (W) 21:27:58 437.432
AUBIESAT-1 26 Jun 21:20:44 21:23:42 30° 257° (WSW) 21:26:38 437.475
DELFI C3 26 Jun 21:49:28 21:53:29 84° 258° (WSW) 21:57:33 145.870
CUBEBUG 2 26 Jun 22:02:53 22:04:26 12° 268° (W) 22:06:00 437.445
PRISM 26 Jun 22:14:27 22:17:15 18° 292° (WNW) 22:20:01 437.425
TIGRISAT 26 Jun 22:20:12 22:24:06 26° 96° (E) 22:27:59 435.000
UNISAT 6 26 Jun 22:24:26 22:28:33 31° 97° (E) 22:32:41 437.425
HUMSAT D 26 Jun 22:30:37 22:34:42 61° 259° (W) 22:38:52 437.325/437.525
ZACube-1 26 Jun 22:38:59 22:39:54 11° 269° (W) 22:40:49 437.345
AO-85 26 Jun 22:54:02 22:58:37 27° 307° (NW) 23:03:07 145.980
CUBEBUG 1 26 Jun 22:54:24 22:57:55 24° 70° (ENE) 23:01:26 437.445
VELOX 1 26 Jun 22:56:59 23:00:32 24° 70° (ENE) 23:04:06 145.980
50 SAT 26 Jun 23:02:37 23:05:45 27° 72° (ENE) 23:08:56 437.505
ANTELSAT 26 Jun 23:03:53 23:08:33 87° 101° (E) 23:13:16 437.575/2403.000
SRMSAT 26 Jun 23:05:10 23:06:19 11° 196° (SSW) 23:07:28 437.500
NANOSAT C BR1 26 Jun 23:06:04 23:07:21 11° 92° (E) 23:08:38 145.865
QB50P1 26 Jun 23:07:19 23:09:10 13° 93° (E) 23:11:02 145.935-145.965
POPSAT HIP 1 26 Jun 23:10:05 23:12:12 13° 93° (E) 23:14:19 437.405
RS-15 26 Jun 23:11:14 23:22:04 38° 255° (WSW) 23:32:45 29.354- 29.394
Cosmos 2491 26 Jun 23:14:50 23:19:03 15° 78° (ENE) 23:23:16 435.465 / 435.565
QB50P2 26 Jun 23:20:57 23:24:08 20° 95° (E) 23:27:17 145.880/145.840
POLYITAN 1 26 Jun 23:23:32 23:26:45 21° 95° (E) 23:29:59 437.675
ESTCUBE 1 26 Jun 23:23:56 23:28:28 85° 76° (ENE) 23:33:02 437.505/2401.250
DUCHIFAT 1 26 Jun 23:26:04 23:29:06 19° 95° (E) 23:32:09 145.980
AISAT 26 Jun 23:36:35 23:41:00 77° 75° (ENE) 23:45:24 437.250
UKube-1 26 Jun 23:47:52 23:52:06 59° 75° (ENE) 23:56:21 .
SPROUT 26 Jun 23:53:32 23:57:33 43° 74° (ENE) 00:01:35 437.525
TIGRISAT 26 Jun 23:56:48 00:00:38 26° 290° (WNW) 00:04:31 435.000
UNISAT 6 27 Jun 00:01:28 00:05:02 22° 291° (WNW) 00:08:38 437.425
YUBILEINY 27 Jun 00:01:55 00:10:39 61° 80° (E) 00:19:21 435.215
DX 1 27 Jun 00:03:53 00:08:12 68° 258° (WSW) 00:12:33 434.975-435.025
SO-50 27 Jun 00:18:50 00:21:38 16° 47° (NE) 00:24:23 436.795
BUGSAT 1 27 Jun 00:29:34 00:33:32 47° 100° (E) 00:37:31 437.445
CUBEBUG 1 27 Jun 00:30:33 00:34:06 24° 264° (W) 00:37:38 437.445
Cosmos 2504 27 Jun 00:30:38 00:38:02 29° 72° (ENE) 00:45:11 435.465 / 435.565
VELOX 1 27 Jun 00:33:17 00:36:53 24° 264° (W) 00:40:29 145.980
50 SAT 27 Jun 00:37:16 00:39:26 15° 266° (W) 00:41:38 437.505
NANOSAT C BR1 27 Jun 00:39:12 00:43:17 48° 286° (WNW) 00:47:23 145.865
QB50P1 27 Jun 00:41:05 00:45:07 43° 286° (WNW) 00:49:09 145.935-145.965
POPSAT HIP 1 27 Jun 00:44:08 00:48:08 40° 287° (WNW) 00:52:07 437.405
SWISSCUBE 27 Jun 00:54:50 00:56:21 11° 64° (ENE) 00:57:52 437.505
QB50P2 27 Jun 00:56:16 00:59:53 27° 289° (WNW) 01:03:30 145.880/145.840
POLYITAN 1 27 Jun 00:58:54 01:02:30 27° 289° (WNW) 01:06:06 437.675
DUCHIFAT 1 27 Jun 01:01:08 01:04:46 28° 289° (WNW) 01:08:24 145.980
JAS-2 27 Jun 01:05:40 01:11:07 53° 100° (E) 01:16:11 435.910
Cosmos 2491 27 Jun 01:05:46 01:14:34 90° 261° (W) 01:23:22 435.465 / 435.565
ITUPSAT 1 27 Jun 01:18:09 01:21:24 18° 67° (ENE) 01:24:41 437.325
BEESAT 27 Jun 01:18:22 01:21:39 19° 67° (ENE) 01:24:58 436.000
TISAT 1 27 Jun 01:20:56 01:25:04 68° 259° (W) 01:29:14 437.305
PCSat 27 Jun 01:28:44 01:33:03 25° 107° (ESE) 01:37:23 145.827
SPROUT 27 Jun 01:31:53 01:33:40 12° 267° (W) 01:35:27 437.525
BEESAT 3 27 Jun 01:42:12 01:43:45 12° 108° (ESE) 01:45:17 437.485
Oscar 19 27 Jun 01:51:39 01:56:40 53° 100° (E) 02:01:40 437.125/150
Gurwin Techsat 1B 27 Jun 01:53:56 01:58:06 23° 95° (E) 02:02:14 435.225
SO-50 27 Jun 01:57:57 02:02:28 55° 244° (WSW) 02:06:50 436.795
YUBILEINY 27 Jun 02:00:01 02:06:42 25° 277° (W) 02:13:25 435.215
BUGSAT 1 27 Jun 02:07:06 02:08:27 11° 294° (WNW) 02:09:49 437.445
ITAMSAT 1 27 Jun 02:13:48 02:14:28 10° 91° (E) 02:15:07 435.822/435.867
BEESAT 2 27 Jun 02:15:16 02:17:44 16° 109° (ESE) 02:20:12 435.950
O/OREOS (USA 219) 27 Jun 02:19:58 02:23:51 29° 103° (ESE) 02:27:45 437.305
Cosmos 2504 27 Jun 02:23:12 02:31:46 56° 270° (W) 02:39:58 435.465 / 435.565
SWISSCUBE 27 Jun 02:28:47 02:33:31 67° 258° (WSW) 02:38:19 437.505
KKS-1 27 Jun 02:38:49 02:41:05 14° 66° (ENE) 02:43:20 437.445
JAS-2 27 Jun 02:52:18 02:55:37 16° 298° (WNW) 02:58:49 435.910
ITUPSAT 1 27 Jun 02:54:25 02:58:54 40° 261° (W) 03:03:25 437.325
BEESAT 27 Jun 02:54:42 02:59:07 38° 261° (W) 03:03:36 436.000
Cosmos 2491 27 Jun 03:07:45 03:12:32 16° 294° (WNW) 03:17:22 435.465 / 435.565
PCSat 27 Jun 03:11:10 03:16:11 38° 302° (WNW) 03:21:14 145.827
STARS 27 Jun 03:15:22 03:18:13 17° 68° (ENE) 03:21:05 437.465
BEESAT 3 27 Jun 03:17:17 03:21:00 42° 302° (WNW) 03:24:46 437.485
Oscar 19 27 Jun 03:32:31 03:35:30 16° 295° (WNW) 03:38:29 437.125/150
Gurwin Techsat 1B 27 Jun 03:33:14 03:38:05 37° 289° (WNW) 03:42:55 435.225
AO-7 27 Jun 03:48:06 03:55:54 41° 100° (E) 04:03:36 29.400- 29.500
ITAMSAT 1 27 Jun 03:49:09 03:54:23 75° 285° (WNW) 03:59:35 435.822/435.867
MOZHAYETS 4 27 Jun 03:49:40 03:54:16 79° 78° (ENE) 03:58:55
BEESAT 2 27 Jun 03:51:40 03:55:16 33° 304° (NW) 03:58:53 435.950
AIST 1 27 Jun 03:56:15 03:59:51 26° 78° (ENE) 04:03:25
O/OREOS (USA 219) 27 Jun 03:59:48 04:03:13 21° 298° (WNW) 04:06:40 437.305
GONETS M04 27 Jun 04:06:17 04:09:41 13° 64° (ENE) 04:13:06
KKS-1 27 Jun 04:12:59 04:17:13 45° 260° (W) 04:21:28 437.445
AIST 2 27 Jun 04:19:19 04:22:15 19° 110° (ESE) 04:25:13 435.215
STARS 27 Jun 04:50:19 04:54:17 34° 261° (W) 04:58:16 437.465
CUBESAT XI-V 27 Jun 05:12:22 05:17:02 68° 76° (ENE) 05:21:42 437.345
Cosmos 2499 27 Jun 05:12:33 05:19:32 26° 71° (ENE) 05:26:10 435.465 / 435.565
HORYU 2 27 Jun 05:32:37 05:37:07 78° 102° (ESE) 05:41:37 437.375
AIST 1 27 Jun 05:34:13 05:37:13 19° 272° (W) 05:40:12
AO-7 27 Jun 05:40:55 05:48:30 40° 296° (WNW) 05:56:05 29.400- 29.500
Cubesat XI-IV 27 Jun 05:44:19 05:46:32 12° 92° (E) 05:48:45 437.490
AO-85 27 Jun 05:50:28 05:52:20 12° 45° (NE) 05:54:08 145.980
STRAND 1 27 Jun 05:53:49 05:56:08 13° 63° (ENE) 05:58:28 437.568
AIST 2 27 Jun 05:56:52 06:00:31 30° 305° (NW) 06:04:11 435.215
GONETS M04 27 Jun 05:59:09 06:07:54 78° 83° (E) 06:16:40
LilacSat-2 27 Jun 06:04:21 06:06:47 16° 94° (E) 06:09:12 437.200
PHONESAT 2.4 27 Jun 06:05:14 06:07:24 18° 144° (SE) 06:09:34 2401.200-2431.200
CUTE-I 27 Jun 06:17:12 06:21:49 29° 97° (E) 06:26:24 437.470
BRITE-PL 27 Jun 06:48:37 06:52:46 89° 99° (E) 06:56:59 437.365/2234.400
NOAA 15 27 Jun 06:50:33 06:55:50 88° 105° (ESE) 07:01:03 137.62
DOVE 4 27 Jun 07:02:11 07:05:37 22° 96° (E) 07:09:09 437.250
NOAA 18 27 Jun 07:02:20 07:07:55 86° 103° (ESE) 07:13:28 137.9125
Cosmos 2499 27 Jun 07:04:37 07:13:10 60° 269° (W) 07:21:11 435.465 / 435.565
Cubesat XI-IV 27 Jun 07:21:39 07:27:00 67° 286° (WNW) 07:32:19 437.490
CUSAT 1 27 Jun 07:22:20 07:30:13 64° 95° (E) 07:37:10 437.405
PRISM 27 Jun 07:25:57 07:28:08 14° 67° (ENE) 07:30:17 437.425
AO-85 27 Jun 07:28:59 07:33:20 64° 244° (WSW) 07:37:19 145.980
DANDE 27 Jun 07:29:32 07:37:00 38° 89° (E) 07:44:18 436.750
STRAND 1 27 Jun 07:29:37 07:34:42 66° 259° (WSW) 07:39:50 437.568
GOMX 1 27 Jun 07:30:40 07:34:51 70° 284° (WNW) 07:39:13 467.674
LilacSat-2 27 Jun 07:37:44 07:41:04 28° 288° (WNW) 07:44:25 437.200
PHONESAT 2.4 27 Jun 07:40:43 07:43:46 69° 338° (NNW) 07:46:50 2401.200-2431.200
CANX-2 27 Jun 07:55:22 07:58:49 23° 95° (E) 08:02:14 2200.000
CUTE-I 27 Jun 07:57:07 08:01:46 30° 291° (WNW) 08:06:23 437.470
GONETS M04 27 Jun 07:58:22 08:03:37 18° 280° (W) 08:08:55
COMPASS 1 27 Jun 08:05:11 08:06:43 12° 92° (E) 08:08:14 437.405
CINEMA 3 27 Jun 08:09:17 08:13:30 36° 98° (E) 08:17:54 145.822/145.860
CUTE 1.7 + AOD 2 27 Jun 08:15:19 08:19:15 35° 98° (E) 08:23:08 437.475
CUBEBUG 2 27 Jun 08:19:07 08:21:23 13° 93° (E) 08:23:40 437.445
SEEDS 27 Jun 08:22:26 08:26:08 29° 97° (E) 08:29:49 437.485
ISS 27 Jun 08:24:54 08:28:00 42° 133° (SE) 08:31:06 145.825
DOVE 4 27 Jun 08:39:37 08:43:15 27° 288° (WNW) 08:47:01 437.250
HO-68 27 Jun 08:44:54 08:52:07 73° 104° (ESE) 08:59:18 435.675
NOAA 18 27 Jun 08:46:09 08:47:46 11° 299° (WNW) 08:49:23 137.9125
ZACube-1 27 Jun 08:52:30 08:54:47 14° 93° (E) 08:57:04 437.345
PRISM 27 Jun 08:59:09 09:03:03 40° 261° (W) 09:06:59 437.425
AUBIESAT-1 27 Jun 09:01:55 09:04:48 19° 101° (ESE) 09:07:48 437.475
Oscar 11 27 Jun 09:04:47 09:07:55 19° 95° (E) 09:11:02 145.826/435.025
AAUSAT CUBESAT 2 27 Jun 09:05:50 09:09:56 54° 100° (E) 09:13:58 437.432
CUSAT 1 27 Jun 09:06:30 09:12:29 23° 287° (WNW) 09:17:56 437.405
UWE-3 27 Jun 09:08:18 09:12:27 33° 97° (E) 09:16:39 435.000/436.395/437.385
FUNcube-1 27 Jun 09:09:59 09:13:23 21° 95° (E) 09:16:48 145.935
DANDE 27 Jun 09:11:47 09:19:39 45° 284° (WNW) 09:27:19 436.750
TIGRISAT 27 Jun 09:17:00 09:19:15 14° 66° (ENE) 09:21:31 435.000
PHONESAT 2.4 27 Jun 09:18:01 09:20:42 26° 355° (N) 09:23:22 2401.200-2431.200
UNISAT 6 27 Jun 09:21:01 09:23:46 17° 68° (ENE) 09:26:35 437.425
CANX-2 27 Jun 09:31:07 09:34:33 24° 289° (WNW) 09:37:59 2200.000
DELFI C3 27 Jun 09:31:54 09:34:20 16° 94° (E) 09:36:46 145.870
COMPASS 1 27 Jun 09:38:28 09:42:28 44° 286° (WNW) 09:46:25 437.405
M-CUBED/EXP-1 PRIME 27 Jun 09:38:54 09:42:49 68° 106° (ESE) 09:47:03 437.505
CINEMA 3 27 Jun 09:47:14 09:50:23 19° 291° (WNW) 09:53:36 145.822/145.860
CUTE 1.7 + AOD 2 27 Jun 09:52:04 09:54:46 16° 292° (WNW) 09:57:26 437.475
CUBEBUG 2 27 Jun 09:53:43 09:58:10 49° 286° (WNW) 10:02:43 437.445
